Wind_Speed
82 88 88 83 61 69 52 52 35 60 66 63 59 56 53 50 44 42 39 37 36 33 33 32 32 32 31 31 30 27 24 22 23 22 21 18 16 14 14 14 16 14 15 18 17
54 81 88 89 80 60 65 67 40 43 62 69 62 59 57 54 51 48 42 40 38 35 34 34 32 32 31 30 30 29 27 26 26 23 21 19 18 16 15 14 19 19 16 18 20
45 57 83 89 87 80 62 67 74 57 47 52 65 63 60 57 54 53 49 42 41 40 41 37 34 33 32 31 29 27 27 27 26 25 23 22 21 19 17 15 18 21 19 19 21
48 44 60 86 91 92 83 56 58 67 65 62 59 60 63 59 57 54 55 49 42 42 41 43 41 36 34 33 31 29 28 28 27 27 27 27 25 23 21 19 18 20 20 21 23
38 45 44 62 81 91 84 81 71 59 57 67 66 61 59 63 60 57 54 54 55 47 43 41 43 42 38 35 34 33 31 30 30 29 29 30 30 28 24 23 22 19 22 23 24
55 42 43 42 52 69 88 87 80 75 65 56 64 63 61 59 63 59 57 54 54 60 49 47 42 40 40 39 38 36 35 34 33 33 33 32 32 33 28 27 26 24 23 24 25
54 58 49 43 35 44 68 78 83 79 76 76 62 63 59 57 57 61 60 56 54 52 56 57 49 47 44 41 42 40 39 38 36 34 34 34 33 32 33 31 30 28 27 25 26
55 60 46 48 39 36 51 59 73 79 74 74 73 67 66 59 54 56 57 58 56 55 51 47 52 54 50 52 44 44 45 41 36 35 36 38 31 32 33 33 32 30 30 30 29
57 52 44 49 44 47 39 46 46 65 76 77 73 72 69 67 61 54 52 54 55 53 51 49 46 47 48 50 51 49 44 40 38 37 37 41 33 33 34 34 35 35 32 32 32
51 53 52 46 45 39 47 33 43 48 58 70 82 75 71 64 64 62 57 53 50 51 50 48 48 45 42 39 44 44 44 43 45 44 47 45 38 34 37 38 37 37 34 32 34
58 56 53 51 46 43 39 37 43 49 48 53 56 69 66 58 55 58 56 55 49 48 47 47 46 44 38 34 39 40 40 38 37 39 45 45 43 40 47 43 39 38 39 37 34
70 55 56 51 50 47 43 49 39 37 40 44 44 54 64 63 56 54 51 53 51 47 46 48 47 38 39 44 39 36 38 40 40 41 39 41 41 38 41 45 45 41 39 39 39
59 76 53 54 55 48 49 46 39 43 40 42 41 39 59 63 59 52 52 48 50 45 45 48 47 42 46 49 46 47 39 38 38 37 39 38 37 37 40 44 42 43 41 40 40
43 62 71 57 59 53 46 49 43 45 45 43 41 39 42 57 63 59 65 59 53 56 54 49 47 50 49 47 46 39 39 39 39 40 39 35 38 32 33 35 41 46 43 39 42
41 49 64 68 63 55 53 47 49 41 48 52 44 40 38 41 51 60 58 59 54 56 53 52 47 46 49 46 44 44 44 43 42 42 39 36 37 28 28 32 36 37 41 42 39
39 43 47 69 64 59 53 45 58 43 55 55 50 46 41 40 41 47 51 54 51 51 49 49 44 42 42 43 43 42 41 41 41 42 42 37 37 40 28 27 30 36 38 41 41
46 43 47 66 71 60 55 65 56 66 39 57 55 51 39 39 37 43 40 43 52 48 50 49 47 42 40 40 42 41 37 39 41 42 42 40 39 39 36 30 29 32 35 38 41
49 47 44 55 78 72 60 65 63 60 65 41 51 49 44 42 39 37 39 41 47 46 47 45 46 45 43 42 40 40 41 42 44 43 42 42 40 40 40 38 34 34 33 36 40
50 49 45 47 70 80 76 60 66 65 55 58 57 50 44 41 40 39 39 34 44 47 47 45 46 43 43 44 45 44 45 42 43 45 45 45 44 44 44 44 42 37 36 37 37
50 48 48 46 50 69 76 65 64 45 58 48 57 53 49 41 38 41 39 37 35 41 44 46 45 45 45 45 45 46 46 45 45 46 45 45 45 46 47 48 47 45 44 42 40
46 49 48 51 46 49 54 74 57 46 39 60 59 51 47 43 36 39 38 37 37 36 39 40 40 42 42 43 43 43 43 42 43 44 46 44 45 47 48 49 48 46 45 42 40
44 47 47 50 49 50 62 74 63 46 47 50 63 56 47 42 40 33 35 35 36 36 38 39 39 40 38 37 38 38 40 41 42 42 43 44 43 45 47 47 45 46 46 44 42
40 45 46 52 52 48 51 60 69 54 37 37 49 60 50 48 46 40 34 33 35 37 44 44 41 41 39 38 39 39 37 36 35 37 39 41 41 43 43 43 46 47 47 46 43
38 45 45 49 50 47 47 58 67 67 36 36 37 62 47 48 45 44 38 35 34 37 41 46 44 40 36 36 36 35 32 32 34 35 38 35 38 40 42 43 44 44 46 43 40
40 42 41 42 45 42 39 45 63 70 48 38 42 52 60 50 45 41 36 40 34 36 38 43 44 41 40 39 37 37 36 36 34 35 39 35 35 37 41 44 44 44 40 41 43
38 40 38 37 38 41 41 38 46 70 62 40 44 48 54 49 44 37 38 35 30 27 29 32 33 35 37 37 37 37 34 35 35 37 38 39 38 37 38 42 43 42 42 45 41
32 39 41 40 37 41 42 35 38 60 64 48 48 50 54 44 38 36 39 35 30 29 27 26 28 27 32 35 36 36 31 33 35 38 37 39 32 40 41 39 37 40 40 33 38
Wind_Direction
222 217 212 215 218 216 218 217 211 227 226 225 222 221 221 221 221 221 220 220 218 216 223 225 226 230 232 235 237 238 240 241 242 252 254 248 246 251 263 270 265 250 237 231 228
230 222 216 212 214 209 213 212 205 210 225 225 222 222 221 221 221 222 221 220 219 219 223 226 226 226 228 232 235 238 238 242 244 248 249 250 253 257 263 272 271 268 255 242 234
225 228 222 217 212 213 209 214 220 220 214 218 224 223 223 222 223 222 222 221 222 221 223 229 228 230 228 229 232 233 235 237 241 246 251 254 257 259 262 261 269 267 264 254 244
218 227 230 221 218 214 217 210 214 221 227 228 227 227 223 224 225 225 227 223 224 224 222 227 234 232 233 234 235 236 236 241 241 245 254 258 261 262 265 264 263 264 258 254 252
218 221 222 231 225 220 220 216 218 214 220 224 225 227 229 225 226 226 228 228 230 228 222 223 228 235 234 237 239 241 240 244 249 251 254 261 267 269 270 272 268 260 259 254 251
231 224 225 220 232 231 224 222 220 219 215 217 220 226 229 230 227 228 229 231 231 231 227 224 228 232 236 238 240 243 244 245 247 252 256 259 264 270 275 272 271 265 258 258 255
224 226 221 224 221 229 225 228 224 223 223 224 222 224 227 229 231 233 230 232 236 234 235 232 236 237 236 240 241 245 248 249 248 253 256 259 259 270 272 272 271 269 264 257 255
211 227 216 221 216 227 224 233 229 229 227 226 224 225 225 227 230 233 232 234 235 239 239 239 237 242 246 240 241 243 245 247 251 255 256 256 256 263 266 271 271 269 267 265 259
205 212 211 198 220 220 228 229 224 227 230 225 224 225 227 226 230 230 230 233 232 234 233 234 238 239 243 241 240 242 247 250 252 255 257 256 257 262 264 266 269 269 267 268 265
205 201 207 185 205 216 222 225 227 226 227 229 229 222 223 227 232 231 232 233 234 235 236 234 233 237 239 242 243 246 248 251 250 250 254 257 262 261 265 264 264 267 269 265 264
207 198 207 207 194 207 210 213 218 231 227 231 231 232 226 227 230 230 234 236 236 240 241 243 243 242 246 241 243 241 242 244 246 249 255 260 261 257 261 263 267 267 263 262 259
211 202 201 201 200 193 201 216 223 231 236 234 233 231 230 226 227 230 232 234 236 239 237 239 242 245 245 246 247 247 251 251 253 255 256 258 258 257 261 262 258 262 267 263 262
231 225 206 202 201 194 194 203 211 220 235 232 230 231 228 224 224 226 229 228 229 232 232 236 238 239 245 251 248 244 249 254 254 253 251 256 258 254 257 259 259 256 259 261 259
228 227 229 210 200 199 200 208 211 215 231 234 233 231 228 228 228 223 226 227 230 231 236 237 237 237 239 245 246 246 246 250 252 253 254 257 257 254 259 263 259 256 256 260 260
226 224 226 219 203 203 201 207 207 204 224 227 233 224 223 230 230 229 232 233 239 240 238 237 238 237 240 241 239 243 244 246 250 253 256 258 266 260 265 265 265 262 258 255 256
225 225 221 221 200 192 196 197 200 203 216 215 225 229 230 227 227 228 228 231 230 235 235 230 228 228 230 233 236 238 241 244 248 253 257 258 266 268 268 266 266 265 263 260 258
220 222 220 218 208 199 192 201 210 210 215 225 225 227 230 228 233 228 228 226 227 230 230 228 226 229 230 233 237 241 245 250 253 253 256 257 259 267 274 270 265 266 266 266 264
219 216 215 216 216 215 190 206 209 211 212 213 219 222 226 225 226 225 225 227 225 227 227 231 233 234 238 241 243 243 243 246 250 253 256 260 263 266 268 273 275 269 265 264 265
214 215 213 213 213 215 202 204 209 213 212 215 221 217 216 220 225 227 227 224 226 229 230 230 234 236 239 240 241 243 246 251 255 257 258 260 265 270 274 277 279 275 268 267 268
210 212 213 214 213 215 219 203 203 203 216 212 217 218 218 219 225 225 223 221 221 222 224 229 234 238 236 236 238 241 243 248 253 258 262 266 270 273 275 277 278 277 276 273 271
210 210 210 215 216 216 219 213 201 202 217 221 218 219 218 217 220 226 227 223 218 221 222 224 230 232 235 237 243 244 246 249 252 254 259 263 266 270 269 272 275 277 279 279 279
210 212 211 214 216 217 219 219 213 200 210 216 219 219 218 218 223 224 226 225 222 229 229 230 230 232 237 240 240 239 242 245 250 254 258 262 266 270 271 273 275 277 278 278 276
216 213 215 217 216 218 222 222 219 197 179 188 214 220 218 218 222 226 229 226 229 228 234 236 237 236 236 236 236 237 243 248 254 258 260 262 265 268 270 271 273 274 274 275 276
219 216 219 219 217 219 223 228 220 207 185 186 210 213 213 213 218 222 227 225 226 226 228 230 231 231 233 234 234 238 242 245 247 251 256 260 263 267 270 271 271 272 274 277 280
217 218 221 220 221 222 229 235 230 211 196 186 206 215 214 219 221 219 218 218 221 225 228 227 225 226 227 231 236 239 244 250 259 261 262 266 269 270 271 274 278 277 278 277 275
222 220 220 219 218 218 226 233 233 216 206 200 207 205 213 215 219 223 221 227 234 230 229 226 229 234 238 240 243 245 246 253 262 268 274 272 271 274 273 270 274 277 277 276 282
229 225 222 221 221 221 221 232 236 228 204 196 201 206 206 208 215 217 221 220 225 223 224 223 224 230 234 238 242 242 253 264 267 268 273 272 273 267 269 271 271 268 274 282 281
Height
5654 5666 5676 5690 5699 5708 5715 5726 5729 5732 5744 5752 5761 5770 5778 5785 5792 5798 5804 5809 5813 5816 5821 5826 5830 5833 5837 5841 5845 5849 5853 5856 5857 5859 5862 5864 5866 5869 5870 5871 5871 5873 5874 5877 5879
5643 5652 5662 5672 5688 5697 5706 5715 5716 5724 5731 5740 5751 5761 5769 5777 5785 5791 5798 5803 5808 5811 5816 5821 5825 5828 5833 5836 5840 5845 5849 5852 5855 5856 5858 5860 5862 5866 5868 5868 5867 5869 5872 5873 5875
5633 5641 5650 5660 5668 5684 5693 5702 5709 5717 5722 5731 5741 5752 5760 5769 5777 5784 5790 5796 5802 5806 5811 5815 5820 5824 5828 5831 5835 5840 5844 5847 5850 5851 5854 5856 5859 5862 5864 5866 5865 5866 5868 5870 5871
5624 5632 5640 5650 5658 5667 5679 5691 5699 5706 5714 5723 5733 5743 5752 5760 5769 5776 5781 5789 5795 5800 5805 5810 5815 5819 5823 5826 5830 5835 5839 5842 5845 5847 5849 5851 5854 5857 5861 5863 5864 5864 5865 5865 5867
5617 5624 5632 5641 5651 5657 5666 5677 5689 5698 5705 5713 5724 5733 5743 5752 5759 5768 5773 5780 5787 5792 5798 5804 5809 5812 5816 5820 5824 5828 5832 5835 5840 5842 5844 5845 5847 5851 5855 5858 5859 5860 5861 5861 5862
5610 5619 5626 5633 5642 5651 5656 5663 5672 5684 5695 5704 5714 5724 5734 5743 5749 5758 5766 5771 5777 5783 5789 5795 5802 5806 5810 5814 5818 5822 5826 5829 5833 5837 5839 5841 5842 5843 5849 5851 5853 5855 5856 5857 5858
5600 5613 5621 5626 5633 5641 5650 5659 5662 5668 5681 5695 5704 5715 5724 5734 5740 5748 5756 5763 5769 5774 5781 5787 5793 5798 5804 5807 5811 5815 5820 5823 5827 5831 5833 5836 5838 5841 5841 5844 5846 5848 5850 5852 5853
5591 5603 5614 5621 5627 5635 5642 5652 5660 5664 5669 5681 5692 5703 5714 5723 5731 5739 5747 5754 5760 5766 5772 5778 5785 5790 5794 5800 5805 5809 5812 5816 5822 5824 5826 5828 5835 5836 5836 5837 5840 5842 5843 5845 5847
5584 5594 5605 5614 5621 5630 5637 5645 5651 5657 5663 5670 5681 5692 5703 5715 5723 5730 5738 5745 5750 5757 5763 5770 5776 5781 5786 5791 5796 5800 5805 5811 5815 5817 5817 5820 5826 5829 5830 5832 5832 5834 5836 5838 5839
5576 5585 5597 5606 5616 5625 5632 5640 5645 5648 5654 5662 5674 5684 5694 5706 5713 5721 5728 5735 5741 5747 5754 5761 5768 5773 5779 5784 5789 5794 5798 5802 5805 5808 5809 5812 5818 5821 5821 5823 5826 5827 5829 5830 5830
5568 5577 5588 5598 5608 5618 5627 5634 5638 5639 5647 5659 5670 5677 5686 5695 5702 5711 5719 5726 5733 5740 5746 5753 5760 5767 5772 5775 5777 5783 5787 5792 5795 5798 5801 5804 5808 5812 5812 5816 5818 5819 5820 5821 5822
5557 5566 5577 5591 5601 5608 5617 5624 5632 5639 5644 5650 5657 5666 5673 5685 5694 5702 5711 5718 5724 5733 5740 5747 5753 5759 5762 5768 5772 5776 5779 5785 5789 5791 5793 5794 5799 5802 5803 5806 5809 5810 5812 5812 5813
5544 5553 5567 5580 5588 5598 5608 5617 5626 5632 5635 5642 5648 5656 5665 5675 5683 5693 5702 5709 5716 5725 5732 5738 5746 5750 5756 5759 5764 5768 5772 5776 5779 5781 5782 5785 5789 5793 5795 5796 5797 5800 5800 5802 5804
5536 5542 5554 5565 5577 5592 5602 5613 5619 5625 5629 5632 5638 5648 5655 5664 5674 5682 5690 5699 5708 5716 5724 5728 5734 5740 5746 5750 5755 5759 5763 5767 5769 5772 5774 5777 5778 5786 5786 5787 5787 5789 5792 5793 5793
5528 5534 5543 5554 5567 5586 5602 5607 5614 5619 5618 5623 5630 5639 5648 5657 5664 5673 5683 5692 5701 5708 5714 5722 5728 5733 5738 5743 5746 5751 5754 5757 5761 5763 5766 5771 5771 5779 5781 5781 5779 5780 5781 5784 5785
5519 5525 5534 5546 5563 5578 5587 5598 5606 5606 5603 5612 5623 5631 5642 5648 5655 5663 5674 5683 5692 5698 5704 5710 5718 5723 5729 5734 5738 5743 5747 5750 5753 5755 5757 5763 5764 5764 5772 5773 5772 5772 5772 5774 5776
5512 5518 5525 5538 5555 5565 5579 5589 5591 5587 5594 5607 5619 5629 5638 5645 5651 5657 5665 5673 5681 5689 5695 5702 5710 5716 5722 5726 5731 5737 5741 5743 5745 5747 5750 5753 5756 5757 5758 5763 5764 5764 5765 5765 5766
5501 5511 5520 5529 5541 5551 5563 5573 5575 5582 5590 5599 5612 5620 5629 5639 5645 5651 5658 5666 5672 5680 5689 5695 5702 5709 5715 5719 5724 5727 5731 5732 5733 5738 5741 5742 5745 5747 5749 5752 5755 5756 5757 5757 5757
5493 5502 5513 5522 5531 5542 5548 5555 5563 5573 5586 5597 5604 5611 5621 5631 5640 5646 5653 5659 5666 5675 5683 5687 5692 5699 5704 5708 5713 5717 5720 5725 5726 5727 5730 5733 5737 5738 5739 5740 5741 5744 5747 5748 5749
5487 5497 5507 5514 5520 5528 5531 5543 5557 5569 5580 5587 5594 5607 5618 5627 5635 5640 5645 5653 5659 5665 5672 5677 5683 5689 5695 5699 5703 5706 5713 5716 5718 5720 5722 5725 5727 5728 5728 5729 5730 5731 5733 5736 5738
5480 5490 5500 5505 5512 5518 5526 5535 5553 5563 5571 5578 5587 5601 5612 5623 5630 5636 5642 5647 5653 5658 5663 5668 5675 5681 5686 5691 5695 5699 5703 5707 5710 5712 5713 5716 5719 5717 5717 5719 5719 5720 5722 5723 5726
5476 5484 5491 5498 5505 5507 5514 5526 5542 5557 5562 5571 5583 5595 5606 5617 5623 5630 5636 5642 5648 5652 5657 5661 5666 5672 5678 5682 5685 5688 5692 5696 5698 5703 5704 5706 5710 5707 5707 5708 5709 5710 5711 5713 5714
5471 5477 5482 5488 5496 5505 5512 5523 5534 5548 5555 5562 5576 5588 5599 5607 5615 5622 5629 5634 5640 5644 5648 5654 5659 5664 5668 5674 5676 5680 5685 5689 5691 5693 5695 5696 5700 5697 5698 5699 5697 5698 5700 5702 5704
5465 5470 5474 5481 5491 5501 5507 5515 5527 5543 5548 5558 5570 5580 5588 5597 5608 5615 5623 5628 5631 5635 5639 5643 5650 5656 5662 5667 5671 5674 5677 5680 5682 5685 5685 5690 5689 5688 5687 5687 5687 5688 5689 5691 5693
5459 5465 5473 5482 5489 5498 5504 5511 5519 5532 5542 5552 5561 5573 5585 5593 5601 5610 5616 5622 5625 5628 5633 5637 5643 5648 5652 5657 5662 5666 5669 5672 5675 5676 5673 5680 5679 5680 5678 5677 5677 5677 5681 5681 5681
5456 5463 5471 5480 5484 5491 5495 5504 5512 5523 5536 5548 5556 5566 5577 5588 5601 5611 5615 5618 5620 5624 5627 5632 5637 5642 5646 5650 5653 5657 5661 5662 5664 5665 5667 5668 5672 5671 5670 5668 5668 5669 5668 5668 5671
5453 5459 5465 5471 5477 5482 5492 5501 5511 5520 5531 5541 5554 5559 5571 5584 5592 5598 5600 5605 5612 5616 5619 5624 5629 5634 5637 5641 5644 5650 5655 5655 5656 5657 5658 5660 5663 5656 5659 5661 5661 5658 5660 5663 5661